RH
12 12 12 11 11 10 10 9 9 9 9 8 8 7 7 7 6 6 6 6 6 5 6 6 6 5 5 6 6 6 5 5 5 5 5 6 7 9 13 16 16 14 21 27 29 33 29 22 26 33 41 49
13 13 12 11 10 10 10 10 10 10 9 9 8 8 7 7 7 7 7 7 6 6 6 6 6 6 6 6 6 6 6 6 6 6 6 8 10 12 17 22 21 22 38 56 56 52 46 32 28 33 40 46
13 13 12 11 11 11 11 10 10 9 8 7 6 6 5 5 5 5 5 5 6 6 6 6 7 7 6 6 6 6 7 7 7 7 9 12 13 13 20 32 34 33 44 66 73 68 61 47 36 36 43 49
13 12 12 11 11 10 9 7 6 5 4 4 3 3 3 3 2 2 3 3 3 3 4 4 5 6 6 7 7 7 7 7 8 8 11 15 18 16 18 34 45 45 49 63 73 75 73 64 53 47 54 63
12 11 10 9 8 6 5 4 4 3 2 2 2 2 2 2 2 2 2 2 2 2 2 2 3 3 4 6 6 7 7 7 8 8 8 11 19 23 22 32 49 54 56 67 73 74 77 77 72 65 67 78
9 8 7 5 5 4 3 3 2 2 2 2 2 2 2 2 2 2 2 2 2 2 2 1 2 2 2 3 3 5 6 7 9 8 9 8 11 20 23 28 45 55 54 62 69 69 73 81 84 82 81 85
6 5 4 3 3 2 2 2 2 2 2 2 2 2 2 2 2 2 2 2 2 1 2 2 1 2 1 2 2 2 3 5 7 9 10 11 8 10 15 17 30 47 52 53 56 54 58 75 86 88 89 90
4 3 3 3 2 2 2 2 2 2 2 2 2 2 2 2 2 1 2 1 2 2 1 2 1 2 1 1 2 1 2 2 3 6 8 11 12 10 11 11 14 28 44 54 62 57 48 59 74 83 92 93
3 2 2 2 2 2 2 2 2 2 2 2 2 2 2 2 2 2 2 2 2 2 2 2 2 2 2 1 1 1 1 2 1 2 4 5 9 12 13 14 11 12 24 44 70 78 63 57 60 65 83 93
2 2 2 2 2 2 2 2 2 2 2 2 2 2 2 2 2 2 2 2 2 2 2 2 2 2 2 2 1 2 1 1 2 1 1 2 3 6 9 13 16 16 18 24 45 69 74 75 71 59 70 85
2 2 2 2 2 2 2 2 2 2 2 2 2 2 2 2 2 3 2 3 3 2 2 2 2 2 2 2 1 2 2 1 2 2 1 2 1 2 3 6 11 18 23 22 25 39 53 78 93 78 71 80
2 2 2 2 2 2 2 2 2 2 2 2 2 2 3 3 3 3 3 3 2 2 2 2 1 1 1 1 1 1 2 2 1 2 2 1 2 1 1 2 3 8 16 24 27 27 31 61 95 92 78 82
2 2 2 2 2 2 2 2 2 2 2 2 2 3 3 3 3 3 3 3 3 2 1 1 1 1 1 1 1 1 1 1 1 2 2 2 2 1 2 2 1 2 5 13 22 31 33 46 75 85 77 78
2 2 3 3 3 2 2 2 2 2 2 3 3 3 3 3 3 3 3 3 3 2 1 1 1 1 2 1 1 1 1 1 1 1 1 1 2 2 2 2 2 1 2 4 9 24 36 42 61 79 78 74
3 3 3 3 3 2 2 2 2 3 3 3 3 3 3 3 4 4 4 3 3 2 1 1 2 1 1 2 1 1 1 1 1 1 1 1 1 1 2 2 3 2 2 2 2 7 18 29 46 65 71 64
3 3 3 3 3 2 2 3 3 3 3 4 4 4 4 4 4 4 4 3 2 1 2 2 1 2 1 2 2 1 2 1 1 1 1 1 1 1 1 1 2 3 3 2 2 2 4 9 20 35 47 50
3 3 3 3 3 3 3 3 3 3 4 4 5 5 5 5 5 4 4 3 2 2 2 2 2 2 2 2 2 2 2 2 2 1 1 1 1 1 1 1 1 2 3 3 3 2 2 2 3 11 25 47
4 3 3 4 3 4 4 4 4 4 4 4 5 5 5 6 5 5 4 3 2 2 2 2 2 2 2 2 2 2 2 2 2 2 2 1 1 2 1 1 1 1 2 2 3 3 3 3 1 3 7 30
4 4 4 4 4 5 5 5 5 4 4 5 5 5 6 6 6 5 4 4 3 3 3 2 2 2 2 2 2 2 2 2 2 2 2 2 2 2 1 1 1 1 1 1 2 3 3 3 2 3 0 8
5 5 5 6 6 6 6 6 6 6 5 6 6 6 6 7 7 6 5 5 4 4 3 3 3 3 2 3 3 3 3 2 3 3 2 2 2 2 2 2 1 1 1 1 1 1 3 4 3 4 1 2
7 7 7 7 7 8 8 8 8 8 8 7 7 7 7 8 7 7 6 5 5 5 5 4 4 4 3 3 3 3 3 3 3 3 3 3 3 3 2 2 2 2 2 1 2 1 2 3 3 4 3 2
9 9 9 9 9 9 10 10 10 10 10 9 9 9 8 9 8 8 7 7 6 6 6 6 5 5 5 4 4 4 3 3 4 3 3 3 3 3 3 3 2 2 2 2 2 2 1 2 3 4 4 3
12 11 11 11 11 11 11 12 12 12 12 12 12 11 11 10 10 9 9 8 8 8 8 7 7 7 6 6 5 5 4 4 4 4 4 4 3 4 3 3 3 2 3 2 2 2 2 2 3 3 5 4
13 13 13 13 13 13 14 13 14 14 14 14 14 14 13 13 12 11 11 10 10 10 10 9 9 9 8 8 8 7 6 5 5 4 4 4 4 4 4 4 4 3 3 3 3 3 3 3 3 3 5 6
15 15 14 15 15 15 16 16 16 17 16 16 16 16 16 15 14 13 13 13 12 12 12 11 11 11 11 10 10 9 9 8 7 6 5 5 5 4 5 4 4 4 3 3 3 3 3 3 5 5 4 6
16 16 16 16 17 17 18 18 18 18 19 18 18 18 18 17 16 16 15 15 14 14 14 14 13 13 13 12 12 12 11 11 10 9 8 6 6 5 5 5 5 5 4 4 4 3 3 3 4 5 5 5
17 17 18 18 19 19 19 20 20 20 20 20 19 20 19 19 18 18 17 17 17 17 16 16 15 15 14 14 14 13 13 13 12 12 11 9 8 7 6 7 7 7 7 5 5 5 5 5 4 4 5 6
18 18 20 20 20 21 21 21 22 22 22 21 21 21 21 21 21 20 20 20 19 19 18 18 17 17 16 16 16 15 15 14 14 14 14 13 11 10 8 8 8 9 10 8 7 7 7 7 7 6 6 7
20 21 22 23 24 25 25 25 26 26 26 25 25 25 25 25 24 23 23 23 22 21 21 20 19 19 18 18 17 17 17 16 16 16 15 15 15 14 12 10 10 10 12 12 10 11 11 10 10 10 10 9
24 25 27 28 29 30 30 30 31 31 30 29 30 29 28 29 28 27 26 25 25 24 24 23 22 22 20 20 20 19 19 18 18 18 18 18 17 18 17 15 13 12 13 15 15 15 16 15 14 13 13 12
29 30 31 32 33 34 34 34 34 34 33 32 33 32 32 33 32 31 29 28 28 27 27 26 26 25 24 23 23 22 21 21 21 21 20 20 20 20 20 19 17 15 16 16 18 20 20 20 19 17 16 15
Wind_Speed
26 26 27 28 28 29 29 29 29 29 29 29 29 29 29 28 29 29 29 29 29 29 28 28 28 27 27 27 28 29 30 30 31 31 30 30 30 31 31 31 32 32 30 32 32 32 34 35 35 35 36 37
27 28 28 29 29 30 30 30 30 30 29 29 29 29 29 29 28 29 29 29 29 30 30 29 28 28 28 28 28 29 29 30 31 32 32 32 31 32 32 32 32 29 25 26 29 30 32 34 35 35 35 37
28 28 28 29 29 29 29 29 29 29 29 29 28 28 28 28 28 28 29 29 29 29 30 30 30 29 29 29 29 29 29 30 31 32 33 33 33 33 33 33 33 31 26 24 26 29 30 31 33 34 34 35
28 28 28 27 27 27 27 27 27 27 27 27 27 27 27 27 27 27 27 27 28 28 29 29 30 30 30 30 30 30 30 31 31 32 33 34 34 35 34 33 33 33 30 26 26 27 29 30 31 33 33 34
27 26 26 26 25 25 25 25 25 25 25 26 26 26 26 25 25 25 25 25 26 27 27 28 28 29 30 30 30 31 31 31 32 32 33 33 34 35 35 34 34 34 33 30 28 28 29 30 31 32 32 33
24 24 24 24 24 24 23 24 24 24 24 25 25 25 25 25 25 24 23 23 23 24 25 26 27 27 29 30 30 31 31 32 33 34 34 34 34 35 36 36 35 36 35 33 31 30 30 31 31 32 32 33
23 23 23 23 23 23 23 23 23 24 24 25 25 25 25 25 24 24 23 23 22 22 22 23 24 25 27 28 30 30 31 32 33 34 35 35 36 36 36 36 37 38 38 36 35 33 32 32 33 34 34 35
22 22 22 23 23 23 23 24 24 24 25 25 24 24 23 23 23 23 22 22 21 21 21 21 22 23 24 25 27 29 30 31 32 33 34 35 36 37 37 36 37 38 39 39 37 35 34 33 33 34 36 37
22 22 22 23 23 24 24 25 25 25 24 23 23 22 22 22 22 22 22 22 22 22 22 22 22 22 23 24 25 27 28 30 31 32 32 33 34 35 37 38 37 37 37 38 38 36 35 34 35 35 36 36
22 22 23 23 24 24 25 25 25 25 23 22 21 21 21 22 22 23 23 23 24 24 24 24 24 24 24 25 26 26 27 29 30 31 32 32 32 33 35 36 37 38 38 38 39 38 36 35 36 36 36 36
23 23 23 24 24 25 25 25 24 23 22 21 21 21 22 22 23 24 25 25 26 27 27 28 28 28 27 27 27 28 28 29 30 31 31 32 32 32 33 34 35 37 39 39 40 39 37 37 36 36 37 37
23 24 25 25 25 25 24 23 22 21 21 21 21 22 22 23 24 25 26 27 28 29 29 30 30 30 30 30 29 29 30 30 30 31 32 32 33 33 33 33 33 34 37 39 41 40 38 38 38 37 37 37
24 25 25 26 25 24 23 21 20 20 20 21 22 23 24 25 26 27 28 29 30 30 30 30 31 31 31 31 31 30 31 31 31 31 32 32 33 34 33 34 33 33 34 36 39 41 40 40 41 41 40 39
25 25 25 25 24 23 21 20 20 21 21 22 24 25 26 27 28 29 30 30 31 31 31 31 31 31 32 32 32 31 31 31 31 31 32 33 33 34 34 34 34 34 34 34 36 40 42 43 43 42 42 42
25 25 25 24 22 21 21 21 21 22 23 24 26 27 28 29 30 31 32 32 32 32 32 32 32 32 32 33 33 33 33 33 33 33 32 33 33 34 35 36 36 36 35 35 35 37 41 44 45 45 45 45
25 25 24 23 22 21 21 22 23 24 25 26 27 28 29 30 31 32 33 34 34 34 33 33 33 33 33 34 34 34 34 35 35 35 34 34 34 34 35 36 37 38 38 37 37 37 39 41 44 46 48 47
25 24 24 23 23 23 23 24 24 25 25 26 27 28 29 30 32 33 34 35 35 35 35 35 34 34 35 35 35 35 35 35 36 36 36 35 35 35 35 35 36 37 38 39 38 38 39 40 42 43 46 48
25 25 25 24 25 25 25 26 26 26 27 27 28 29 29 30 32 33 34 35 36 36 36 36 36 35 35 36 36 36 36 36 36 36 37 37 36 36 36 36 36 36 38 39 40 39 39 40 41 42 43 45
26 26 26 26 26 26 27 28 28 28 29 29 30 30 31 31 32 33 33 34 35 36 37 37 37 37 36 36 36 37 37 37 38 38 38 38 38 38 38 38 37 37 37 38 40 41 40 40 40 42 43 43
27 27 27 27 27 28 28 29 29 30 30 31 31 32 32 32 32 33 33 34 34 35 36 37 38 38 38 38 38 38 38 39 39 39 39 40 40 40 40 40 39 39 39 39 39 41 42 42 41 41 42 43
28 28 28 28 28 28 28 29 30 30 31 32 32 33 33 34 34 34 34 34 35 35 36 37 38 39 40 40 40 40 40 40 40 40 40 41 41 42 42 42 42 41 41 41 40 41 41 43 43 43 42 43
27 27 28 28 28 29 29 29 30 30 31 32 33 34 35 35 36 36 36 36 36 36 36 37 38 39 40 41 41 42 42 42 42 42 42 42 42 43 44 44 44 44 43 42 42 42 42 43 44 45 44 43
26 27 27 27 28 29 29 30 30 31 31 32 33 34 35 36 37 37 37 38 37 38 38 38 39 40 41 42 42 43 44 44 44 44 43 43 43 43 44 45 46 46 45 44 44 43 43 44 45 46 46 46
26 26 27 27 27 28 29 29 30 30 31 32 32 33 34 36 37 38 38 39 39 40 40 40 40 40 41 42 43 44 45 45 46 46 46 45 45 44 44 45 46 47 47 47 46 45 44 44 45 46 47 48
26 26 26 27 27 28 28 29 29 30 31 32 32 33 34 35 37 38 39 40 41 41 42 42 42 42 42 42 43 44 45 46 47 48 48 48 48 47 47 46 47 47 48 49 48 47 45 43 43 45 47 49
26 26 27 27 28 29 29 29 30 30 31 32 33 33 34 35 36 38 39 40 41 42 43 43 43 43 43 44 44 45 45 46 47 48 49 50 50 49 49 48 49 49 49 50 51 51 50 47 45 43 45 47
26 27 27 28 28 29 29 30 30 31 32 33 34 34 35 36 37 38 39 40 41 42 43 44 44 44 45 45 45 45 46 46 47 48 49 50 51 51 51 50 49 50 50 51 52 52 53 52 50 47 45 45
27 28 28 28 29 29 30 30 31 32 33 34 34 35 35 36 37 38 39 40 41 42 43 44 45 46 46 46 47 47 47 47 47 48 49 49 51 52 52 52 50 49 49 51 52 52 53 53 53 52 50 46
28 28 28 29 30 31 31 32 32 33 34 35 35 36 36 37 38 38 39 40 41 42 43 44 45 46 47 47 48 48 48 48 48 48 49 49 50 51 53 53 52 50 48 49 51 52 53 53 53 53 52 50
29 30 30 31 32 33 34 35 35 36 37 37 37 38 38 38 38 39 40 40 41 42 43 44 45 46 47 48 49 49 50 49 49 49 50 50 50 50 52 53 53 51 49 48 49 50 51 52 53 54 52 52
30 31 32 33 35 36 37 38 38 39 40 40 40 41 41 40 40 40 41 41 41 42 43 44 45 46 47 48 49 50 51 51 50 51 51 50 51 50 50 51 52 52 50 49 47 47 49 49 51 52 53 52
Wind_Direction
315 317 318 319 320 320 320 320 319 319 319 319 318 317 317 315 313 312 311 310 308 307 305 304 303 301 299 298 298 297 295 295 294 292 290 288 286 284 282 281 279 281 283 280 275 268 263 261 261 261 259 258
315 317 318 319 319 319 319 319 319 320 320 320 320 319 319 318 316 314 312 311 310 308 306 305 304 302 299 297 295 294 294 293 293 293 291 290 288 287 286 286 285 285 285 283 280 274 267 261 260 260 259 257
315 316 317 317 317 318 318 318 319 320 320 320 320 321 320 320 319 317 315 313 311 310 308 306 304 303 300 298 295 293 292 291 290 290 289 288 287 286 286 286 287 287 283 281 281 279 274 268 263 261 261 260
314 314 315 315 316 316 317 318 319 319 320 321 321 321 321 321 320 319 317 315 313 311 309 307 306 304 302 299 297 294 291 290 289 288 287 286 285 284 284 283 284 285 282 278 277 278 277 275 271 267 264 263
311 311 312 313 314 315 316 317 318 319 320 321 321 321 321 320 319 318 317 315 312 310 308 307 305 304 302 300 298 296 293 291 289 287 285 284 282 281 281 281 279 280 280 277 275 274 275 273 271 269 265 262
308 310 311 312 314 315 315 316 317 317 318 318 319 319 320 319 319 317 315 313 311 308 306 304 303 302 301 300 299 298 296 294 291 290 287 285 282 280 278 277 276 276 276 275 272 270 271 271 268 265 262 259
308 309 311 312 313 313 314 315 315 315 315 316 316 316 317 317 317 317 316 315 313 311 308 305 304 302 301 300 300 299 298 297 295 293 292 289 287 284 281 278 275 274 275 274 272 269 267 268 267 264 260 257
308 309 310 311 311 312 312 313 313 313 314 315 315 315 315 314 314 314 316 316 316 315 312 309 305 303 301 299 299 298 298 298 296 295 294 294 292 289 286 282 278 275 274 274 275 272 267 265 265 264 262 258
307 308 308 308 309 310 311 311 312 313 313 314 313 313 312 312 312 313 314 314 314 313 311 308 306 303 300 297 296 295 295 295 295 295 294 295 294 292 290 287 284 279 274 271 272 273 272 268 266 265 263 260
305 306 306 307 308 309 309 310 310 310 310 310 309 309 310 311 312 313 313 313 312 312 310 308 306 303 300 297 294 293 292 292 292 292 293 293 293 293 291 289 287 284 279 273 268 268 271 271 268 266 264 264
304 305 305 306 306 307 307 307 306 305 305 304 305 306 309 310 311 312 312 312 312 312 311 310 308 306 303 300 297 294 292 291 290 290 291 292 293 293 292 291 289 285 282 279 273 269 268 267 265 264 264 265
303 304 304 304 304 304 303 302 300 299 299 301 303 305 308 310 311 312 313 312 313 313 312 312 312 311 309 307 305 301 297 294 291 289 289 290 291 292 292 292 291 287 284 281 278 275 270 264 261 260 260 263
302 302 303 304 303 302 300 297 295 296 298 300 303 306 309 311 312 312 313 313 314 314 314 315 315 315 315 313 312 309 306 302 297 293 290 288 288 290 291 291 290 289 287 283 279 277 274 268 263 260 259 260
302 302 303 303 302 299 297 296 297 299 301 303 306 308 310 311 312 313 314 314 315 316 316 316 317 317 317 316 316 315 313 311 307 303 298 293 289 287 288 290 290 289 288 286 281 277 274 272 268 265 261 259
303 303 302 301 298 295 295 298 301 304 306 307 308 309 311 311 312 313 313 314 315 315 315 316 316 316 317 317 317 317 316 316 314 312 309 304 298 293 289 288 289 290 289 288 284 279 275 272 270 267 264 261
304 303 301 298 295 293 294 298 302 305 308 309 310 310 311 311 312 312 313 313 314 314 314 314 315 316 316 316 316 316 316 316 316 315 314 312 310 305 299 293 290 290 290 290 289 285 281 276 272 269 267 266
304 303 301 299 297 296 297 299 302 304 306 308 309 311 311 312 312 312 312 312 312 312 313 314 314 315 315 315 315 315 315 315 315 315 314 314 313 311 308 303 296 291 289 289 290 289 286 283 278 273 269 267
304 303 302 301 301 301 301 301 302 302 303 305 307 309 310 311 312 312 312 313 313 312 313 313 313 314 314 314 314 314 314 313 313 313 313 313 313 312 311 309 305 299 293 288 287 288 287 286 283 279 274 267
305 304 303 302 302 302 302 303 303 303 303 304 306 308 309 310 311 312 312 312 313 313 313 312 312 312 312 312 312 312 312 312 312 312 312 312 312 312 312 311 310 307 303 296 290 286 285 285 284 282 278 272
305 304 303 302 302 302 303 304 305 305 305 305 307 308 308 309 310 311 311 311 311 312 312 312 312 311 311 311 311 310 311 311 311 311 311 311 311 311 311 311 311 311 309 305 298 291 287 285 284 282 280 276
304 303 302 301 302 302 304 305 306 307 308 308 308 308 308 309 309 309 309 309 310 310 310 311 310 310 310 310 309 309 309 309 309 309 309 309 310 310 310 310 310 310 310 309 305 299 293 287 284 283 281 278
304 303 302 302 302 303 304 306 308 309 310 310 309 309 308 308 309 309 309 308 308 309 309 309 309 309 309 309 308 308 307 307 306 306 306 306 307 308 308 308 308 308 309 308 307 304 299 293 287 284 282 279
304 303 302 302 302 303 305 307 309 310 310 310 310 309 309 308 308 308 308 308 307 308 308 308 307 307 308 307 307 307 306 305 304 304 303 303 304 305 305 305 306 306 306 306 306 305 302 297 292 287 284 282
304 302 302 302 303 304 306 308 309 310 310 309 310 309 309 308 307 307 307 307 307 307 306 306 306 306 306 306 306 306 305 304 303 302 301 301 301 301 302 303 303 303 304 304 304 303 302 298 294 290 287 285
303 302 303 304 305 306 307 309 309 310 310 309 309 309 309 308 308 307 307 307 307 306 306 305 305 305 305 305 305 305 305 304 304 303 301 300 300 300 300 301 301 301 301 301 301 300 299 296 293 289 287 285
303 303 305 306 307 308 309 310 310 310 309 309 309 310 309 309 308 308 308 307 307 306 306 305 305 304 304 304 304 303 303 304 304 303 302 301 300 300 300 300 300 300 300 300 300 300 299 297 293 289 286 285
305 306 308 309 310 310 311 311 311 311 310 310 310 310 310 310 310 309 309 308 307 307 306 305 305 304 304 303 303 302 302 302 302 302 302 301 300 299 299 299 300 300 300 299 299 299 299 298 296 293 288 284
307 309 311 312 312 312 313 313 313 313 312 311 311 312 312 311 311 309 308 308 307 307 307 306 305 304 303 302 302 301 301 301 301 301 301 301 300 299 298 298 298 299 299 298 298 298 297 297 296 295 292 287
308 311 313 313 314 314 314 314 315 314 313 313 314 314 313 312 311 309 308 307 307 307 307 306 305 304 303 302 301 301 300 300 300 300 300 300 300 300 299 298 297 298 298 297 297 296 296 295 295 294 293 291
310 313 314 314 314 315 315 315 316 315 314 314 315 314 314 313 311 309 308 307 307 307 307 306 305 304 302 302 301 300 300 300 300 300 299 299 299 299 299 298 297 296 296 296 295 294 294 294 293 293 292 290
311 312 313 313 314 315 314 314 315 315 314 314 315 314 314 314 312 310 309 308 307 306 306 305 304 303 302 301 301 300 299 299 299 299 299 298 298 298 298 298 297 296 295 293 292 291 291 291 290 291 291 289